| time (UTC) | temp C | wind direction | speed KPH | gust KPH | rain 1hr cm | rain 24hr cm | rain mn cm | humidity % | barometer mb |
| 20260507113111 | 6 | 207 | 0.0 | 0.0 | 0.00 | 0.05 | 0.05 | 86 | 1011.4 |
| 20260507111648 | 6 | 201 | 0.0 | 0.0 | 0.00 | 0.05 | 0.05 | 86 | 1011.5 |
| 20260507104015 | 6 | 203 | 0.0 | 3.2 | 0.00 | 0.05 | 0.05 | 86 | 1011.4 |
| 20260507102248 | 6 | 207 | 0.0 | 3.2 | 0.00 | 0.05 | 0.05 | 86 | 1011.4 |
| 20260507093550 | 6 | 201 | 0.0 | 3.2 | 0.00 | 0.05 | 0.05 | 86 | 1011.4 |
| 20260507090939 | 6 | 204 | 0.0 | 3.2 | 0.00 | 0.05 | 0.05 | 86 | 1011.5 |
| 20260507084926 | 6 | 135 | 0.0 | 0.0 | 0.00 | 0.05 | 0.05 | 86 | 1011.5 |
| 20260507081952 | 6 | 135 | 0.0 | 0.0 | 0.00 | 0.05 | 0.05 | 86 | 1011.4 |
| 20260507074915 | 6 | 135 | 0.0 | 0.0 | 0.00 | 0.05 | 0.05 | 86 | 1011.3 |
| 20260507061636 | 6 | 135 | 0.0 | 0.0 | 0.00 | 0.05 | 0.05 | 85 | 1011.3 |
| 20260507053524 | 6 | 135 | 0.0 | 0.0 | 0.00 | 0.05 | 0.05 | 84 | 1011.1 |
| 20260507050932 | 6 | 135 | 0.0 | 1.6 | 0.00 | 0.05 | 0.05 | 84 | 1011.1 |
| 20260507043525 | 6 | 135 | 0.0 | 1.6 | 0.00 | 0.05 | 0.05 | 83 | 1010.9 |
| 20260507035526 | 6 | 135 | 0.0 | 0.0 | 0.00 | 0.05 | 0.05 | 82 | 1010.7 |
| 20260507033745 | 6 | 135 | 0.0 | 0.0 | 0.00 | 0.05 | 0.05 | 82 | 1010.6 |
| 20260507031141 | 6 | 135 | 0.0 | 0.0 | 0.00 | 0.05 | 0.05 | 81 | 1010.6 |
| 20260507024918 | 6 | 135 | 0.0 | 0.0 | 0.00 | 0.05 | 0.05 | 80 | 1010.5 |
| 20260507022214 | 7 | 135 | 0.0 | 0.0 | 0.00 | 0.05 | 0.05 | 80 | 1010.4 |
| 20260507015617 | 7 | 135 | 0.0 | 0.0 | 0.00 | 0.05 | 0.05 | 79 | 1010.4 |
| 20260507012726 | 7 | 135 | 0.0 | 0.0 | 0.00 | 0.05 | 0.05 | 78 | 1010.2 |
| 20260507005541 | 7 | 135 | 0.0 | 0.0 | 0.00 | 0.05 | 0.05 | 78 | 1010.1 |
| 20260507002937 | 7 | 135 | 0.0 | 0.0 | 0.00 | 0.05 | 0.05 | 77 | 1010.1 |
| 20260507000611 | 7 | 135 | 0.0 | 0.0 | 0.00 | 0.05 | 0.05 | 76 | 1010.1 |
| 20260506232823 | 7 | 135 | 0.0 | 0.0 | 0.00 | 0.05 | 0.05 | 76 | 1010.0 |
| 20260506225200 | 7 | 135 | 0.0 | 0.0 | 0.00 | 0.05 | 0.05 | 75 | 1010.2 |
| 20260506221319 | 7 | 135 | 0.0 | 0.0 | 0.00 | 0.05 | 0.05 | 75 | 1010.3 |
| 20260506213900 | 7 | 135 | 0.0 | 0.0 | 0.00 | 0.05 | 0.05 | 75 | 1010.5 |
| 20260506210218 | 7 | 135 | 0.0 | 0.0 | 0.00 | 0.05 | 0.05 | 74 | 1010.2 |
| 20260506203724 | 7 | 135 | 0.0 | 0.0 | 0.00 | 0.05 | 0.05 | 73 | 1009.8 |
| 20260506195251 | 7 | 135 | 0.0 | 0.0 | 0.00 | 0.05 | 0.05 | 71 | 1009.6 |
| 20260506190810 | 7 | 135 | 0.0 | 0.0 | 0.00 | 0.05 | 0.05 | 71 | 1009.5 |
| 20260506185022 | 8 | 135 | 0.0 | 0.0 | 0.00 | 0.05 | 0.05 | 72 | 1009.4 |
| 20260506181728 | 8 | 135 | 0.0 | 0.0 | 0.00 | 0.05 | 0.05 | 71 | 1009.2 |
| 20260506174430 | 8 | 135 | 0.0 | 0.0 | 0.00 | 0.05 | 0.05 | 69 | 1009.2 |
| 20260506170914 | 8 | 135 | 0.0 | 0.0 | 0.00 | 0.05 | 0.05 | 70 | 1009.2 |
| 20260506165028 | 8 | 135 | 0.0 | 0.0 | 0.00 | 0.05 | 0.05 | 69 | 1009.3 |
| 20260506160931 | 8 | 135 | 0.0 | 0.0 | 0.00 | 0.05 | 0.05 | 68 | 1009.6 |
| 20260506154604 | 8 | 135 | 0.0 | 0.0 | 0.00 | 0.05 | 0.05 | 67 | 1009.6 |
| 20260506150944 | 8 | 135 | 0.0 | 8.0 | 0.00 | 0.05 | 0.05 | 66 | 1009.4 |
| 20260506144529 | 8 | 132 | 0.0 | 9.7 | 0.00 | 0.05 | 0.05 | 65 | 1009.0 |
| 20260506142025 | 8 | 77 | 6.4 | 9.7 | 0.00 | 0.05 | 0.05 | 63 | 1007.8 |
| 20260506135106 | 8 | 78 | 3.2 | 4.8 | 0.00 | 0.05 | 0.05 | 63 | 1008.7 |
| 20260506131931 | 8 | 350 | 0.0 | 3.2 | 0.00 | 0.05 | 0.05 | 62 | 1009.0 |
| 20260506124415 | 8 | 312 | 0.0 | 8.0 | 0.00 | 0.05 | 0.05 | 63 | 1009.0 |
| 20260506121127 | 8 | 314 | 0.0 | 9.7 | 0.03 | 0.05 | 0.05 | 62 | 1009.1 |